Flag for Kenya Weather past 2 weeks in Nairobi, Kenya

Now
73 °F

Passing clouds.


Feels Like: 77 °F
Forecast: 58 / 76 °F
Wind: No wind

Location: Nairobi / Wilson

Current Time: Aug 22, 2014 at 12:53:45 PM

Latest Report: Aug 22, 2014 at 12:00 PM


Visibility: N/A

Pressure: 30.15 "Hg

Humidity: 53%

Dew point: 55 °F

Location of NairobiLocation

Historic Weather in Nairobi — Graph

°F

Nairobi temperature yesterday

Maximum temperature yesterday: 79 °F (at 3:00 PM)
Minimum temperature yesterday: 54 °F (at 6:00 AM)
Average temperature yesterday: 69 °F

Past Weeks' High & Low Weather Summary

 TemperatureHumidityPressure
High79 °F (Aug 21, 3:00 PM)100% (Aug 13, 1:00 PM)30.33 "Hg (Aug 13, 1:00 PM)
Low52 °F (Aug 20, 5:00 AM)34% (Aug 21, 4:00 PM)30.07 "Hg (Aug 21, 4:00 PM)
Average65 °F69%30.19 "Hg
* Reported Aug 7 11:00 AM — Aug 22 11:00 AM, Nairobi, Weather by CustomWeather, © 2014

Note: Actual official high and low records may vary slightly from our data, if they occured in-between our weather recording intervals... More about our weather records

Advertising

Nairobi weather history for previous 24 hours

 ConditionsComfort  
Time TempWeatherWind HumidityBarometerVisibility
11:00 AM
Aug 22
73 °FPartly sunny.No wind53%30.18 "HgN/A
10:00 AM64 °FPartly sunny.8 mph73%30.21 "HgN/A
9:00 AM63 °FPartly sunny.3 mph77%30.18 "HgN/A
8:00 AM59 °FScattered clouds.No wind82%30.15 "HgN/A
7:00 AM57 °FPassing clouds.No wind94%30.15 "HgN/A
6:00 AM55 °FClear.No wind88%30.12 "HgN/A
5:00 AM57 °FPassing clouds.No wind88%30.12 "HgN/A
4:00 AM61 °FClear.No wind77%30.12 "HgN/A
3:00 AM61 °FClear.No wind83%30.12 "HgN/A
2:00 AM61 °FClear.No wind72%30.15 "HgN/A
11:00 PM
Aug 21
61 °FClear.8 mph68%30.15 "HgN/A
10:00 PM68 °FMild.No wind56%30.15 "HgN/A
9:00 PM70 °FPassing clouds.9 mph46%30.12 "HgN/A
8:00 PM72 °FPassing clouds.12 mph41%30.12 "HgN/A
7:00 PM75 °FPassing clouds.17 mph39%30.09 "HgN/A
5:00 PM77 °FPartly sunny.9 mph36%30.07 "HgN/A
4:00 PM79 °FPartly sunny.7 mph34%30.07 "HgN/A
3:00 PM79 °FPartly sunny.7 mph37%30.12 "HgN/A
2:00 PM77 °FScattered clouds.9 mph36%30.15 "HgN/A
1:00 PM73 °FPassing clouds.6 mph47%30.18 "HgN/A
12:00 PM72 °FPartly sunny.12 mph50%30.21 "HgN/A
Weather by CustomWeather, © 2014

See weather overviewHow to use our weather pages